Hourly Data Report for November 14, 2017

SHEARWATER RCS
NOVA SCOTIA

44°37'47.000" N
63°30'48.000" W
24.00 m
8205092
71264
AAW

Download Data

Hourly Data (November 2017)
Hourly Data Report for November 14, 2017
TIME
LST
Temp Definition
°C
Dew Point Definition
°C
Rel Hum Definition
%
Precip. Amount Definition
mm

Wind Dir Definition
10's deg

Wind Spd Definition
km/h
Visibility Definition
km
Stn Press Definition
kPa
Hmdx Definition


Wind Chill Definition


Weather Definition


00:00 3.4 -0.9 73 0.0 4 12   102.23     LegendNANA
01:00 2.2 0.3 87 0.0 4 14   102.10     LegendNANA
02:00 1.5 0.3 92 0.3 5 15   102.04     LegendNANA
03:00 1.5 0.3 92 0.2 3 8   102.05     LegendNANA
04:00 1.2 0.1 92 0.5 2 10   101.98     LegendNANA
05:00 1.4 0.2 92 0.2 36 13   101.93     LegendNANA
06:00 1.6 -0.2 88 0.2 36 17   101.91     LegendNANA
07:00 0.7 -0.6 91 0.3 35 20   101.90     LegendNANA
08:00 0.8 -0.5 91 0.5 36 23   101.92     LegendNANA
09:00 1.4 -0.5 87 0.3 36 21   101.89     LegendNANA
10:00 1.9 -0.1 87 0.0 35 21   101.88     LegendNANA
11:00 2.8 0.2 83 0.0 36 21   101.90     LegendNANA
12:00 4.1 0.2 75 0.0 36 24   101.83     LegendNANA
13:00 4.7 0.1 72 0.0 36 28   101.78     LegendNANA
14:00 4.9 -0.8 67 0.0 36 25   101.82     LegendNANA
15:00 5.3 -1.7 61 0.0 36 26   101.81     LegendNANA
16:00 4.2 -1.3 67 0.0 36 23   101.80     LegendNANA
17:00 3.6 -1.5 69 0.0 35 28   101.84     LegendNANA
18:00 3.5 -2.0 67 0.0 35 21   101.89     LegendNANA
19:00 3.6 -1.9 67 0.0 35 19   101.90     LegendNANA
20:00 3.4 -2.4 66 0.0 36 23   101.93     LegendNANA
21:00 3.1 -2.2 68 0.0 35 21   101.95     LegendNANA
22:00 3.1 -2.1 69 0.0 35 20   101.97     LegendNANA
23:00 3.0 -1.8 70 0.0 36 22   101.93     LegendNANA

Notes on Data Quality.

Legend

  • E = Estimated
  • M = Missing
  • NA = Not Available*
  • [empty] = Indicates an unobserved value
Date modified: